Location: Harbor Island
(32.3990°N, 80.4435°W)
Time: 20:44:07
(UTC-04:00)

Daily predictions for brighter satellites

Satellite Brightness Start Highest point End
(mag) Time Altitude Azimuth Time Altitude Azimuth Time Altitude Azimuth
Cosmos 1339 Rocket 4.5 18:58:00 10° N 19:04:18 71° E 19:10:27 10° SSE
Meteor 1-28 Rocket 3.3 19:00:48 10° N 19:04:35 81° W 19:08:18 10° SSW
Cosmos 1315 Rocket 3.3 19:03:03 10° N 19:06:57 41° E 19:10:52 10° SSE
Cosmos 921 Rocket 3.2 19:03:31 10° N 19:07:48 48° ENE 19:11:58 10° SSE
SKYMED 2 3.7 19:05:17 10° NNE 19:09:32 54° E 19:13:46 10° S
Cosmos 1743 Rocket 3.7 19:05:12 10° N 19:09:37 82° W 19:14:02 10° S
Cosmos 1727 Rocket 4.0 19:04:02 10° N 19:10:24 78° E 19:16:42 10° S
Cosmos 1484 Rocket 3.2 19:07:43 10° S 19:11:25 65° W 19:15:06 10° NNW
GP-B 3.1 19:08:14 10° N 19:12:41 88° E 19:17:07 10° S
SL-16 R/B 4.3 19:10:02 10° NW 19:15:02 33° WSW 19:20:01 10° SSW
Cosmos 1626 3.2 19:16:28 10° NNW 19:20:06 50° W 19:23:42 10° S
BREEZE-M R/B 2.0 19:18:11 10° SW 19:20:31 55° SE 19:23:16 11° NE
Cosmos 1908 3.3 19:17:44 10° S 19:21:38 83° W 19:25:33 10° N
Cosmos 1703 3.7 19:19:59 10° NNW 19:23:52 65° W 19:27:42 10° S
Cosmos 1269 Rocket 4.0 19:22:16 10° SSW 19:27:32 86° ESE 19:32:50 10° NNE
MONITOR-E 4.2 19:24:39 10° SSE 19:27:39 54° ENE 19:30:41 10° N
Cosmos 44 4.3 19:23:41 10° SW 19:27:50 41° WNW 19:31:56 10° NNE
Cosmos 2237 4.2 19:22:40 10° NNW 19:28:24 73° ENE 19:34:05 10° SSE
Cosmos 1500 Rocket 4.1 19:25:26 10° NNW 19:29:42 62° W 19:33:56 10° S
Cosmos 2237 Rocket 3.7 19:27:17 10° NNE 19:30:30 15° ENE 19:31:45 14° ENE
H-2A R/B 4.4 19:32:05 16° ENE 19:32:05 16° ENE 19:34:24 10° NNE
Cosmos 2227 Rocket 2.9 19:28:21 10° SSE 19:33:15 31° ESE 19:38:10 10° NE
Molniya-1 2.0 19:33:50 10° SW 19:35:27 67° WNW 19:35:47 44° N
IUS-17 SRM-1 3.8 19:33:14 10° WSW 19:36:05 25° SSW 19:37:37 12° SE
Aureole 2 Rocket 3.6 19:33:09 10° N 19:36:42 30° ENE 19:40:04 11° SE
RESURS DK-1 3.7 19:33:50 10° NW 19:37:45 43° WSW 19:41:39 10° S
Iridium 4 Rocket 3.7 19:34:31 10° S 19:40:01 74° E 19:45:52 10° N
SPOT 3 Rocket 3.5 19:35:00 10° SSE 19:40:09 72° ENE 19:45:21 10° N
Atlas Centaur 2 2.7 19:37:15 10° W 19:41:13 38° SSW 19:45:48 11° SE
Gbstr 26 Del rocket 4.3 19:38:53 10° NNW 19:43:41 36° NE 19:47:06 21° E
Centaur D AC-28 3.6 19:40:38 10° SSW 19:43:58 25° SE 19:47:34 17° ESE
Cosmos 1452 Rocket 4.2 19:38:59 10° NNW 19:44:08 57° WSW 19:49:16 10° S
Cosmos 1300 2.8 19:42:03 10° S 19:45:45 51° E 19:49:28 10° NNE
Cosmos 494 Rocket 4.2 19:41:14 10° S 19:46:05 46° ESE 19:50:58 10° NNE
ATLAS 2A CENTAUR R/B 2.1 19:47:30 10° SSW 19:48:38 16° SSE 19:48:38 16° SSE
Cosmos 2360 Rocket 3.5 19:45:35 10° NW 19:50:53 43° WSW 19:56:12 10° S
Sich 1 3.4 19:48:37 10° N 19:52:47 41° E 19:56:58 10° SSE
CZ-4C R/B 3.3 19:49:27 10° SW 19:54:14 41° NW 19:59:37 10° NNE
Cosmos 2098 Rocket 3.6 19:51:06 10° SSW 19:55:27 73° W 20:01:05 10° N
COSMO-SKYMED 1 4.1 19:53:29 10° N 19:57:30 37° WNW 20:01:29 10° SW
FENGYUN 3A 3.5 19:53:22 10° SSE 19:58:44 76° ENE 20:04:08 10° N
Sakura Rocket 4.4 19:57:16 10° SSW 20:00:02 18° SSE 20:00:33 18° SSE
Cosmos 2219 4.4 19:58:37 10° SW 20:04:03 43° WNW 20:09:31 10° N
COSMOS 2428 2.8 19:59:28 10° NNW 20:05:10 82° WSW 20:10:51 10° SSE
Meteor 2-10 3.9 20:02:35 10° S 20:07:36 89° WNW 20:12:43 10° N
Cosmos 2333 Rocket 2.3 20:02:29 10° N 20:08:05 51° ENE 20:11:07 26° SE
Cosmos 1805 Rocket 3.7 20:04:29 10° N 20:08:53 75° W 20:13:17 10° S
Cosmos 2228 Rocket 3.6 20:04:54 10° SSE 20:08:23 38° ESE 20:08:23 38° ESE
Hubble Space Telescope 1.5 20:05:32 10° WSW 20:09:24 40° S 20:10:06 36° SE
Cosmos 2297 Rocket 2.2 20:04:51 10° S 20:10:21 57° ESE 20:14:04 21° NE
Cosmos 1726 4.1 20:14:05 10° SW 20:17:22 30° W 20:20:39 10° NNW
Cosmos 1328 Rocket 3.4 20:13:04 10° S 20:17:26 66° E 20:19:44 27° NNE
Cosmos 1666 Rocket 3.3 20:13:58 10° N 20:18:18 85° E 20:22:36 10° S
Cosmos 2082 3.6 20:15:06 10° S 20:20:47 70° ESE 20:24:20 24° NNE
Cosmos 2251 Rocket 3.4 20:16:21 10° S 20:21:36 76° ESE 20:25:27 19° NNE
Cosmos 1633 Rocket 2.9 20:18:34 10° N 20:23:00 77° E 20:24:47 36° SSE
ASTRO E2 4.1 20:23:58 10° W 20:27:27 29° SSW 20:27:55 28° S
DELTA 2 R/B (1) 3.9 20:25:55 10° WNW 20:31:25 60° SSW 20:33:03 42° SSE
FengYun 1-2 T 4.1 20:27:05 10° SSE 20:32:36 88° ENE 20:38:06 10° NNW
Meteor 2-2 Rocket 4.4 20:29:30 10° SSW 20:35:12 70° W 20:40:50 10° N
ALOS 3.8 20:33:11 10° SSW 20:37:27 35° W 20:41:44 10° NNW
Cosmos 2219 Rocket 2.4 20:32:03 10° NNW 20:37:38 70° WSW 20:41:34 20° S
OAO 1 Rocket 4.3 20:35:25 10° WNW 20:40:44 77° N 20:40:46 77° NNE
Delta 2 Rocket 4.5 20:39:17 10° WNW 20:41:39 35° W 20:41:39 35° W
USA 267 3.1 20:48:33 62° ENE 20:49:41 78° SE 20:56:13 10° SW
Cosmos 1331 Rocket 4.1 20:47:57 10° NNW 20:52:43 71° WNW 20:52:43 71° WNW
Meteor 1-27 4.2 20:47:48 10° S 20:53:29 84° W 20:59:18 10° N
MOS 1-B Rocket 4.4 21:06:25 50° NNW 21:06:25 50° NNW 21:10:47 10° NNW
BREEZE-M DEB (TANK) 4.2 20:55:19 10° NW 21:04:20 41° N 21:04:20 41° N
Cosmos 2237 Rocket 2.9 21:09:22 10° NNW 21:13:39 49° NW 21:13:39 49° NW
Cosmos 2227 Rocket 3.9 21:12:21 10° WSW 21:17:11 29° WNW 21:21:11 14° N
SL-16 R/B 4.4 21:22:20 10° NNW 21:23:15 15° N 21:23:15 15° N
Atlas Centaur 2 4.4 21:26:52 10° WSW 21:28:27 14° SW 21:28:27 14° SW
